Regional Weather Roundup
Issued by NWS Charleston, WV

Home | Current Version | Previous Version | Text Only | Print | Product List | Glossary On
Versions: 1 2 3 4 5 6 7 8 9 10 11 12 13 14 15 16 17 18 19 20 21 22 23 24 25 26 27 28 29 30 31 32 33 34 35 36 37 38 39 40 41 42 43 44 45 46 47 48 49 50
000
ASUS41 KRLX 020910
RWRRLX
West Virginia Regional Weather Roundup
National Weather Service Charleston WV
500 AM EDT SUN AUG 02 2015

Note: "fair" indicates few or no clouds below 12,000 feet with no
significant weather and/or obstructions to visibility.

WVZ003-021000-
Northern Panhandle of West Virginia

CITY           SKY/WX    TMP DP  RH WIND       PRES   REMARKS
WHEELING       PTCLDY    63  56  78 S5        29.96F
$$

WVZ009-021000-
Northwest West Virginia

CITY           SKY/WX    TMP DP  RH WIND       PRES   REMARKS
PARKERSBURG    PTCLDY    58  56  93 CALM      30.00S
$$

WVZ006-021000-
Western West Virginia

CITY           SKY/WX    TMP DP  RH WIND       PRES   REMARKS
HUNTINGTON     PTCLDY    60  60 100 CALM      29.99S
$$

WVZ015-021000-
West Central West Virginia

CITY           SKY/WX    TMP DP  RH WIND       PRES   REMARKS
CHARLESTON     MOCLDY    61  59  93 CALM      30.00S
$$

WVZ022-031-021000-
North Central West Virginia

CITY           SKY/WX    TMP DP  RH WIND       PRES   REMARKS
CLARKSBURG     CLEAR     58  56  93 CALM      29.99S
MORGANTOWN     CLEAR     62  55  77 CALM      29.99F
$$

WVZ025-035-042-045-021000-
Southern West Virginia

CITY           SKY/WX    TMP DP  RH WIND       PRES   REMARKS
BECKLEY        MOCLDY    59  55  87 CALM      30.06S
LOGAN          FOG       61  61 100 CALM      29.99F VSB 3/4
BLUEFIELD      PTCLDY    62  54  74 SW5       30.08S
LEWISBURG      PTCLDY    55  52  90 CALM      30.05S
$$

WVZ047-021000-
Northern Mountains of West Virginia

CITY           SKY/WX    TMP DP  RH WIND       PRES   REMARKS
ELKINS         CLEAR     53  51  93 CALM      30.05S
$$

WVZ052-021000-
Eastern Panhandle of West Virginia

CITY           SKY/WX    TMP DP  RH WIND       PRES   REMARKS
MARTINSBURG    CLEAR     60  55  83 SW3       29.95R
PETERSBURG     CLEAR    N/A N/A N/A CALM      29.99F
$$



USA.gov is the U.S. government's official web portal to all federal, state and local government web resources and services.